�N����,����,�g�[���i�����r���O�j���x,�g�[�����x,��g�[���i���ցj���x,����
 2002/10/07, 0:00,-9.9,-9.9,-9.9,-9.9
 2002/10/07, 0:15,-9.9,-9.9,-9.9,-9.9
 2002/10/07, 0:30,-9.9,-9.9,-9.9,-9.9
 2002/10/07, 0:45,-9.9,-9.9,-9.9,-9.9
 2002/10/07, 1:00,-9.9,-9.9,-9.9,-9.9
 2002/10/07, 1:15,-9.9,-9.9,-9.9,-9.9
 2002/10/07, 1:30,-9.9,-9.9,-9.9,-9.9
 2002/10/07, 1:45,-9.9,-9.9,-9.9,-9.9
 2002/10/07, 2:00,-9.9,-9.9,-9.9,-9.9
 2002/10/07, 2:15,-9.9,-9.9,-9.9,-9.9
 2002/10/07, 2:30,-9.9,-9.9,-9.9,-9.9
 2002/10/07, 2:45,-9.9,-9.9,-9.9,-9.9
 2002/10/07, 3:00,-9.9,-9.9,-9.9,-9.9
 2002/10/07, 3:15,-9.9,-9.9,-9.9,-9.9
 2002/10/07, 3:30,-9.9,-9.9,-9.9,-9.9
 2002/10/07, 3:45,-9.9,-9.9,-9.9,-9.9
 2002/10/07, 4:00,-9.9,-9.9,-9.9,-9.9
 2002/10/07, 4:15,-9.9,-9.9,-9.9,-9.9
 2002/10/07, 4:30,-9.9,-9.9,-9.9,-9.9
 2002/10/07, 4:45,-9.9,-9.9,-9.9,-9.9
 2002/10/07, 5:00,-9.9,-9.9,-9.9,-9.9
 2002/10/07, 5:15,-9.9,-9.9,-9.9,-9.9
 2002/10/07, 5:30,-9.9,-9.9,-9.9,-9.9
 2002/10/07, 5:45,-9.9,-9.9,-9.9,-9.9
 2002/10/07, 6:00,-9.9,-9.9,-9.9,-9.9
 2002/10/07, 6:15,-9.9,-9.9,-9.9,-9.9
 2002/10/07, 6:30,-9.9,-9.9,-9.9,-9.9
 2002/10/07, 6:45,-9.9,-9.9,-9.9,-9.9
 2002/10/07, 7:00,-9.9,-9.9,-9.9,-9.9
 2002/10/07, 7:15,-9.9,-9.9,-9.9,-9.9
 2002/10/07, 7:30,-9.9,-9.9,-9.9,-9.9
 2002/10/07, 7:45,-9.9,-9.9,-9.9,-9.9
 2002/10/07, 8:00,-9.9,-9.9,-9.9,-9.9
 2002/10/07, 8:15,-9.9,-9.9,-9.9,-9.9
 2002/10/07, 8:30,-9.9,-9.9,-9.9,-9.9
 2002/10/07, 8:45,-9.9,-9.9,-9.9,-9.9
 2002/10/07, 9:00,-9.9,-9.9,-9.9,-9.9
 2002/10/07, 9:15,-9.9,-9.9,-9.9,-9.9
 2002/10/07, 9:30,-9.9,-9.9,-9.9,-9.9
 2002/10/07, 9:45,-9.9,-9.9,-9.9,-9.9
 2002/10/07,10:00,-9.9,-9.9,-9.9,-9.9
 2002/10/07,10:15,-9.9,-9.9,-9.9,-9.9
 2002/10/07,10:30,-9.9,-9.9,-9.9,-9.9
 2002/10/07,10:45,-9.9,-9.9,-9.9,-9.9
 2002/10/07,11:00,25.1,56.9,25,25.2
 2002/10/07,11:15,25.4,56.9,24.8,23.5
 2002/10/07,11:30,24.6,60.6,23.9,23.5
 2002/10/07,11:45,25.1,58.6,25.6,23.5
 2002/10/07,12:00,25.5,48.6,24.9,23.5
 2002/10/07,12:15,25.5,48.3,24.9,23.5
 2002/10/07,12:30,25.7,47.1,25.1,23.5
 2002/10/07,12:45,26.2,43.5,24.9,22.9
 2002/10/07,13:00,25.2,43,24.9,22.9
 2002/10/07,13:15,25.7,40.9,25.2,22.9
 2002/10/07,13:30,26.5,40.2,25.6,22.9
 2002/10/07,13:45,25.3,38.6,24.9,22.9
 2002/10/07,14:00,25.5,36.8,25.1,23
 2002/10/07,14:15,25.5,38.5,25,23
 2002/10/07,14:30,25.2,39.1,24.9,23
 2002/10/07,14:45,24.6,41.5,24.6,23
 2002/10/07,15:00,24.5,43.5,24.4,23.1
 2002/10/07,15:15,24.2,43.3,24.2,23.1
 2002/10/07,15:30,24.2,44.6,24.1,23.1
 2002/10/07,15:45,24.1,45.3,24.1,23.1
 2002/10/07,16:00,24,44.8,24,23.1
 2002/10/07,16:15,24.3,46.8,24,23.2
 2002/10/07,16:30,24.2,47.7,24.1,23.2
 2002/10/07,16:45,24.2,48,24,23.2
 2002/10/07,17:00,24.1,47.4,24,23.2
 2002/10/07,17:15,23.9,48.6,23.9,23.2
 2002/10/07,17:30,23.8,49.9,23.8,23.2
 2002/10/07,17:45,23.7,53.8,23.6,23.2
 2002/10/07,18:00,23.5,55.6,23.5,23.2
 2002/10/07,18:15,23.6,57,23.5,23.2
 2002/10/07,18:30,23.8,56.6,23.5,23.2
 2002/10/07,18:45,24.3,59.4,23.9,22.7
 2002/10/07,19:00,24.2,57.3,24.2,22.7
 2002/10/07,19:15,24.7,59.1,24.3,22.7
 2002/10/07,19:30,24.5,57.2,24,22.7
 2002/10/07,19:45,24.4,57,23.9,22.6
 2002/10/07,20:00,24.4,57.7,23.9,22.7
 2002/10/07,20:15,24.2,57.4,23.8,22.6
 2002/10/07,20:30,24.3,58.1,23.8,22.6
 2002/10/07,20:45,24.3,59,23.8,22.6
 2002/10/07,21:00,24.1,60,23.7,22.6
 2002/10/07,21:15,24,59.6,23.7,22.6
 2002/10/07,21:30,23.9,60.3,23.6,22.5
 2002/10/07,21:45,23.8,60.1,23.6,22.5
 2002/10/07,22:00,23.8,60.5,23.5,22.5
 2002/10/07,22:15,23.7,60.4,23.5,22.5
 2002/10/07,22:30,23.7,60.6,23.4,22.4
 2002/10/07,22:45,23.6,60.5,23.4,22.4
 2002/10/07,23:00,23.5,60.8,23.4,22.4
 2002/10/07,23:15,23.4,60.8,23.3,22.4
 2002/10/07,23:30,23.4,60.9,23.3,22.3
 2002/10/07,23:45,23.3,60.9,23.2,22.3
 2002/10/08, 0:00,23.3,61.2,23.1,22.3
 2002/10/08, 0:15,23.2,61.3,23.1,22.2
 2002/10/08, 0:30,23.1,61.5,23.1,22.2
 2002/10/08, 0:45,23.1,61.5,23.1,22.2
 2002/10/08, 1:00,23,61.7,23,22.2
 2002/10/08, 1:15,23,61.7,22.9,22.2
 2002/10/08, 1:30,22.9,61.9,22.9,22.1
 2002/10/08, 1:45,22.8,61.9,22.9,22.1
 2002/10/08, 2:00,22.8,62.2,22.8,22.1
 2002/10/08, 2:15,22.7,62.1,22.8,21.8
 2002/10/08, 2:30,22.7,62.2,22.7,21.7
 2002/10/08, 2:45,22.6,62.2,22.7,21.6
 2002/10/08, 3:00,22.5,62.3,22.7,21.6
 2002/10/08, 3:15,22.5,62.4,22.6,21.7
 2002/10/08, 3:30,22.4,62.6,22.6,21.7
 2002/10/08, 3:45,22.4,62.6,22.5,21.5
 2002/10/08, 4:00,22.3,62.8,22.5,21.4
 2002/10/08, 4:15,22.3,62.9,22.5,21.4
 2002/10/08, 4:30,22.3,63,22.4,21.4
 2002/10/08, 4:45,22.2,63,22.4,21.4
 2002/10/08, 5:00,22.1,63.2,22.4,21.4
 2002/10/08, 5:15,22.1,63.2,22.3,21.4
 2002/10/08, 5:30,22.1,63.3,22.2,21.4
 2002/10/08, 5:45,22,63.3,22.2,21.4
 2002/10/08, 6:00,22,63.4,22.2,21.3
 2002/10/08, 6:15,22.1,63.7,22.2,21.3
 2002/10/08, 6:30,22.2,64.5,22.3,21.3
 2002/10/08, 6:45,22.1,64.1,22.2,21.3
 2002/10/08, 7:00,22,64.1,22.2,21.3
 2002/10/08, 7:15,22.1,63.8,22.1,21.2
 2002/10/08, 7:30,22.1,64,22.1,21.2
 2002/10/08, 7:45,22.3,64.7,22.2,21.2
 2002/10/08, 8:00,22.5,63.8,22.3,21.1
 2002/10/08, 8:15,22.5,64.8,22.5,21.2
 2002/10/08, 8:30,22.7,64.7,22.5,21.1
 2002/10/08, 8:45,22.8,64.5,22.5,21.1
 2002/10/08, 9:00,22.8,64.7,22.5,21.1
 2002/10/08, 9:15,22.7,64.4,22.5,21.1
 2002/10/08, 9:30,22.7,64.2,22.5,21.1
 2002/10/08, 9:45,22.8,63.8,22.5,21.1
 2002/10/08,10:00,22.8,63.9,22.5,21.1
 2002/10/08,10:15,22.8,63.9,22.6,21
 2002/10/08,10:30,22.8,63.5,22.6,21
 2002/10/08,10:45,22.8,63.6,22.6,21
 2002/10/08,11:00,22.8,63.4,22.6,21
 2002/10/08,11:15,22.7,63.6,22.6,21
 2002/10/08,11:30,22.7,63.4,22.6,21
 2002/10/08,11:45,22.7,63.4,22.5,21
 2002/10/08,12:00,22.9,64.9,22.5,21
 2002/10/08,12:15,22.9,64,22.6,21
 2002/10/08,12:30,22.8,64.3,22.6,21
 2002/10/08,12:45,22.7,64,22.6,21
 2002/10/08,13:00,22.7,64.1,22.5,21
 2002/10/08,13:15,22.7,63.9,22.5,21
 2002/10/08,13:30,22.6,64.1,22.5,21
 2002/10/08,13:45,22.6,64.1,22.4,21
 2002/10/08,14:00,22.5,64.3,22.4,21
 2002/10/08,14:15,22.5,64.2,22.3,21
 2002/10/08,14:30,22.5,64.5,22.4,21
 2002/10/08,14:45,22.4,64.5,22.3,21
 2002/10/08,15:00,22.3,64.9,22.3,21
 2002/10/08,15:15,22.3,64.9,22.2,21
 2002/10/08,15:30,22.3,65,22.3,21
 2002/10/08,15:45,22.3,64.9,22.3,21
 2002/10/08,16:00,22.5,65.1,22.3,20.9
 2002/10/08,16:15,22.5,65,22.4,20.9
 2002/10/08,16:30,22.1,66.3,22.3,20.9
 2002/10/08,16:45,21.9,66,22.2,20.9
 2002/10/08,17:00,21.8,67.5,22.1,20.9
 2002/10/08,17:15,21.7,69.4,22,21.3
 2002/10/08,17:30,21.8,71.8,22.1,21.3
 2002/10/08,17:45,22,73.4,22.1,21.3
 2002/10/08,18:00,22.6,72.1,22.3,21.2
 2002/10/08,18:15,22.8,70.2,22.3,21.2
 2002/10/08,18:30,22.8,69.5,22.4,21.2
 2002/10/08,18:45,22.8,69.1,22.5,21.2
 2002/10/08,19:00,22.9,68.4,22.5,21.1
 2002/10/08,19:15,23,68.3,22.4,21.1
 2002/10/08,19:30,23.1,70.4,22.2,21.1
 2002/10/08,19:45,23.1,69.7,22.3,21
 2002/10/08,20:00,23.1,69.3,22.3,21
 2002/10/08,20:15,22.8,70.1,22.6,21
 2002/10/08,20:30,22.7,69.4,22.6,20.9
 2002/10/08,20:45,22.6,70.8,22.6,20.9
 2002/10/08,21:00,22.6,71.1,22.6,20.9
 2002/10/08,21:15,22.5,71.5,22.5,20.8
 2002/10/08,21:30,22.5,70.6,22.4,20.8
 2002/10/08,21:45,22.4,70.4,22.3,20.8
 2002/10/08,22:00,22.3,69.8,22.3,20.7
 2002/10/08,22:15,22.2,69.6,22.3,20.7
 2002/10/08,22:30,22.2,69.1,22.2,20.7
 2002/10/08,22:45,22.1,68.9,22.2,20.6
 2002/10/08,23:00,22,68.8,22.1,20.6
 2002/10/08,23:15,22,68.6,22.1,20.6
 2002/10/08,23:30,21.9,68.4,22,20.6
 2002/10/08,23:45,21.8,68.4,21.9,20.5
 2002/10/09, 0:00,21.8,68.2,21.9,20.5
 2002/10/09, 0:15,21.7,68.2,21.8,20.5
 2002/10/09, 0:30,21.7,68.1,21.8,20.4
 2002/10/09, 0:45,21.6,68.1,21.8,20.4
 2002/10/09, 1:00,21.5,68,21.7,20.4
 2002/10/09, 1:15,21.5,68,21.6,20.4
 2002/10/09, 1:30,21.4,67.9,21.6,20.3
 2002/10/09, 1:45,21.4,67.9,21.5,20.3
 2002/10/09, 2:00,21.3,67.9,21.5,20.3
 2002/10/09, 2:15,21.2,67.8,21.5,20.3
 2002/10/09, 2:30,21.2,67.9,21.4,20.2
 2002/10/09, 2:45,21.1,67.9,21.4,20.3
 2002/10/09, 3:00,21.1,67.8,21.3,20.3
 2002/10/09, 3:15,21.1,67.8,21.3,20.3
 2002/10/09, 3:30,21,67.8,21.2,20.2
 2002/10/09, 3:45,21,67.8,21.2,20.2
 2002/10/09, 4:00,20.9,67.8,21.2,20.2
 2002/10/09, 4:15,20.9,67.8,21.1,20.2
 2002/10/09, 4:30,20.8,67.8,21.1,20.1
 2002/10/09, 4:45,20.8,67.9,21,20.1
 2002/10/09, 5:00,20.7,67.8,21,20.1
 2002/10/09, 5:15,20.7,67.8,21,20
 2002/10/09, 5:30,20.6,67.9,20.9,20
 2002/10/09, 5:45,20.8,68.8,20.9,20
 2002/10/09, 6:00,21.2,68.8,20.9,19.9
 2002/10/09, 6:15,21,68.6,20.9,19.9
 2002/10/09, 6:30,21.1,69.1,20.9,19.8
 2002/10/09, 6:45,21.2,68.4,20.9,19.8
 2002/10/09, 7:00,21.1,68.5,21.1,19.8
 2002/10/09, 7:15,21.2,68.1,21.2,19.8
 2002/10/09, 7:30,21.2,68.1,21.2,19.7
 2002/10/09, 7:45,21.1,68.1,21.1,19.7
 2002/10/09, 8:00,21.3,68.1,21.2,19.7
 2002/10/09, 8:15,21.4,67.3,21.3,19.6
 2002/10/09, 8:30,21.5,68.1,21.4,19.6
 2002/10/09, 8:45,21.8,67.5,21.4,19.6
 2002/10/09, 9:00,21.8,68.3,21.5,19.6
 2002/10/09, 9:15,21.8,68.9,21.5,19.6
 2002/10/09, 9:30,21.7,69.9,21.6,19.6
 2002/10/09, 9:45,21.8,69.2,21.7,19.6
 2002/10/09,10:00,22,69.3,21.8,19.6
 2002/10/09,10:15,22,70.1,21.9,19.6
 2002/10/09,10:30,22,69.5,21.9,19.5
 2002/10/09,10:45,22.2,69.3,22,19.5
 2002/10/09,11:00,22.6,68.2,22.7,19.5
 2002/10/09,11:15,22.6,68.2,22.9,19.5
 2002/10/09,11:30,22.7,67.9,22.9,19.6
 2002/10/09,11:45,23,67.4,23.3,19.5
 2002/10/09,12:00,23.1,67.1,23.5,19.5
 2002/10/09,12:15,23.4,65.1,23.5,19.5
 2002/10/09,12:30,23.7,59,23.7,19.5
 2002/10/09,12:45,23.8,60.3,23.7,19.6
 2002/10/09,13:00,23.7,61.6,24.3,19.6
 2002/10/09,13:15,24,61,24.4,19.6
 2002/10/09,13:30,24.3,60.2,24.1,19.6
 2002/10/09,13:45,24.3,58.7,23.9,19.6
 2002/10/09,14:00,24.5,56.1,24.5,19.6
 2002/10/09,14:15,24.6,56.5,24.5,19.6
 2002/10/09,14:30,24.4,55.9,24.4,19.6
 2002/10/09,14:45,24.6,54.8,24.6,19.6
 2002/10/09,15:00,24.4,53.3,24.3,19.7
 2002/10/09,15:15,24.3,55.2,24.2,19.7
 2002/10/09,15:30,24.3,54.2,24.2,19.7
 2002/10/09,15:45,24.4,55.4,24.2,19.7
 2002/10/09,16:00,24.2,54.6,24.1,19.7
 2002/10/09,16:15,24.2,55,24,19.8
 2002/10/09,16:30,24.1,56.1,23.9,19.8
 2002/10/09,16:45,24,57.2,23.8,19.8
 2002/10/09,17:00,23.8,57.5,23.7,19.8
 2002/10/09,17:15,23.8,58.2,23.6,19.9
 2002/10/09,17:30,23.7,58.8,23.5,19.9
 2002/10/09,17:45,23.6,58.4,23.5,21.2
 2002/10/09,18:00,23.6,61.4,23.5,21.3
 2002/10/09,18:15,23.5,61.6,23.5,21.3
 2002/10/09,18:30,23.5,62.8,23.5,21.3
 2002/10/09,18:45,23.3,61.5,23.4,21.3
 2002/10/09,19:00,23.6,60.4,23.3,21.3
 2002/10/09,19:15,23.7,59.5,23.2,21.3
 2002/10/09,19:30,23.9,58.8,23.1,21.3
 2002/10/09,19:45,23.8,58.5,23,21.2
 2002/10/09,20:00,23.8,57.6,23,21.2
 2002/10/09,20:15,23.6,57.3,23,21.2
 2002/10/09,20:30,23.2,57.9,22.9,21.2
 2002/10/09,20:45,23.1,59.4,22.8,21.2
 2002/10/09,21:00,23.3,60.2,23.1,21.1
 2002/10/09,21:15,23.4,62.2,23.1,21.1
 2002/10/09,21:30,23.2,62.8,23,21.1
 2002/10/09,21:45,23,62.5,22.9,21.1
 2002/10/09,22:00,22.9,63,22.8,21
 2002/10/09,22:15,22.8,62.8,22.8,21
 2002/10/09,22:30,22.7,63.2,22.8,21
 2002/10/09,22:45,22.6,63,22.6,21
 2002/10/09,23:00,22.5,63.4,22.5,20.9
 2002/10/09,23:15,22.4,63,22.4,20.9
 2002/10/09,23:30,22.3,63.5,22.4,20.9
 2002/10/09,23:45,22.2,63.4,22.3,20.8
 2002/10/10, 0:00,22.1,63.6,22.2,20.7
 2002/10/10, 0:15,22,63.7,22.2,20.7
 2002/10/10, 0:30,21.9,63.8,22.1,20.7
 2002/10/10, 0:45,21.8,63.6,22,20.6
 2002/10/10, 1:00,21.7,63.9,21.9,20.6
 2002/10/10, 1:15,21.6,63.8,21.8,20.6
 2002/10/10, 1:30,21.5,63.9,21.7,20.5
 2002/10/10, 1:45,21.4,63.6,21.7,20.2
 2002/10/10, 2:00,21.3,63.8,21.6,20.2
 2002/10/10, 2:15,21.2,63.6,21.5,20.1
 2002/10/10, 2:30,21.1,63.7,21.4,20.1
 2002/10/10, 2:45,20.9,63.5,21.3,20
 2002/10/10, 3:00,20.8,63.7,21.3,20
 2002/10/10, 3:15,20.8,63.7,21.2,20
 2002/10/10, 3:30,20.7,63.8,21.1,19.9
 2002/10/10, 3:45,20.5,63.8,21,19.9
 2002/10/10, 4:00,20.5,63.8,20.9,19.8
 2002/10/10, 4:15,20.3,63.6,20.8,19.8
 2002/10/10, 4:30,20.2,63.7,20.8,19.7
 2002/10/10, 4:45,20.2,63.7,20.7,19.7
 2002/10/10, 5:00,20.1,63.8,20.6,19.7
 2002/10/10, 5:15,20,63.8,20.5,19.6
 2002/10/10, 5:30,19.9,63.8,20.4,19.6
 2002/10/10, 5:45,19.8,63.7,20.4,19.5
 2002/10/10, 6:00,20.2,65.2,20.3,19.5
 2002/10/10, 6:15,20.1,64.4,20.3,19.4
 2002/10/10, 6:30,20.1,64,20.2,19.4
 2002/10/10, 6:45,20.1,63.2,20.3,19.3
 2002/10/10, 7:00,20.1,65.1,20.2,19.3
 2002/10/10, 7:15,20.2,65.5,20.1,19.2
 2002/10/10, 7:30,20.6,64.3,20.2,19.2
 2002/10/10, 7:45,20.5,63.4,20.5,19.1
 2002/10/10, 8:00,20.8,64,20.7,19.1
 2002/10/10, 8:15,21,62.9,21,19
 2002/10/10, 8:30,21.3,62.8,21.3,19
 2002/10/10, 8:45,21.4,62.9,21.8,19
 2002/10/10, 9:00,21.3,63,22.2,19
 2002/10/10, 9:15,21.3,63.1,22.8,18.9
 2002/10/10, 9:30,21.4,62.6,23.1,18.9
 2002/10/10, 9:45,21.7,62.3,23.4,18.9
 2002/10/10,10:00,21.9,61.8,23.7,18.9
 2002/10/10,10:15,22.1,61,24,18.9
 2002/10/10,10:30,22.3,60.7,24.2,18.9
 2002/10/10,10:45,22.6,60.1,24.5,18.9
 2002/10/10,11:00,22.8,59.7,24.6,18.9
 2002/10/10,11:15,23,59.3,24.9,18.9
 2002/10/10,11:30,23.2,58.9,25.2,18.9
 2002/10/10,11:45,23.4,58.1,25.3,18.9
 2002/10/10,12:00,23.6,57.7,25.4,18.9
 2002/10/10,12:15,23.7,57.1,25.6,18.9
 2002/10/10,12:30,23.9,57.4,25.7,18.9
 2002/10/10,12:45,24.1,57,25.8,18.9
 2002/10/10,13:00,24.2,57.2,25.9,18.9
 2002/10/10,13:15,24.3,56.5,26,18.9
 2002/10/10,13:30,24.4,56.6,26.1,19
 2002/10/10,13:45,24.5,56.4,26.2,19
 2002/10/10,14:00,24.9,54.7,25.9,19
 2002/10/10,14:15,25.3,52.1,25.2,19
 2002/10/10,14:30,25.3,49.8,25.3,19.1
 2002/10/10,14:45,25.7,45.6,25.8,19.1
 2002/10/10,15:00,25.6,42.5,25.8,19.1
 2002/10/10,15:15,25.5,41.8,25.5,19.1
 2002/10/10,15:30,25.2,40.2,25.3,19.2
 2002/10/10,15:45,25.1,42,25.3,19.2
 2002/10/10,16:00,24.9,40.4,24.9,19.3
 2002/10/10,16:15,24.9,43.5,25,19.3
 2002/10/10,16:30,24.8,45.3,25,19.3
 2002/10/10,16:45,24.6,45.9,24.8,19.4
 2002/10/10,17:00,24.5,46.6,24.7,19.4
 2002/10/10,17:15,24.2,46.4,24.4,19.4
 2002/10/10,17:30,24.1,47.3,24.2,19.5
 2002/10/10,17:45,23.9,46.8,24,19.5
 2002/10/10,18:00,23.8,47.3,23.8,19.5
 2002/10/10,18:15,23.8,47.6,23.6,19.6
 2002/10/10,18:30,23.5,46.8,23.6,19.6
 2002/10/10,18:45,23.8,51.5,23.6,19.6
 2002/10/10,19:00,23.7,49.4,23.5,19.6
 2002/10/10,19:15,23.2,47.3,23.3,19.7
 2002/10/10,19:30,23,48.2,23.2,19.7
 2002/10/10,19:45,22.8,47.6,23.1,19.7
 2002/10/10,20:00,22.8,48.4,23,19.7
 2002/10/10,20:15,23.1,49.2,23,19.7
 2002/10/10,20:30,23.1,51.5,23,19.7
 2002/10/10,20:45,23,52.8,22.9,19.7
 2002/10/10,21:00,23.2,55.7,23,19.7
 2002/10/10,21:15,23.2,57.1,22.9,19.7
 2002/10/10,21:30,23.1,57.3,22.9,19.7
 2002/10/10,21:45,23.1,56.7,22.8,19.7
 2002/10/10,22:00,23.4,56.9,22.7,19.7
 2002/10/10,22:15,23.5,57,22.6,19.6
 2002/10/10,22:30,23.4,57.2,22.5,19.6
 2002/10/10,22:45,23.4,56.8,22.4,19.6
 2002/10/10,23:00,23.4,56.9,22.3,19.6
 2002/10/10,23:15,23.4,56.7,22.3,19.5
 2002/10/10,23:30,23.4,56.5,22.2,19.5
 2002/10/10,23:45,23.1,56.5,22.2,19.5
 2002/10/11, 0:00,23,56.7,22.1,19.4
 2002/10/11, 0:15,22.8,56.5,22,19.4
 2002/10/11, 0:30,22.7,56.5,22,19.4
 2002/10/11, 0:45,22.6,56.4,21.9,19.3
 2002/10/11, 1:00,22.5,56.5,21.8,19.3
 2002/10/11, 1:15,22,56.7,22,19.3
 2002/10/11, 1:30,21.8,57.2,21.9,19.8
 2002/10/11, 1:45,21.6,57.1,21.8,19.9
 2002/10/11, 2:00,21.5,57.4,21.7,19.9
 2002/10/11, 2:15,21.3,57.4,21.5,19.8
 2002/10/11, 2:30,21.1,57.5,21.4,19.8
 2002/10/11, 2:45,21,57.4,21.3,19.7
 2002/10/11, 3:00,20.9,57.6,21.2,19.7
 2002/10/11, 3:15,20.8,57.5,21.1,19.6
 2002/10/11, 3:30,20.6,57.6,21,19.5
 2002/10/11, 3:45,20.5,57.6,20.9,19.5
 2002/10/11, 4:00,20.4,57.8,20.8,19.4
 2002/10/11, 4:15,20.3,57.8,20.7,19.3
 2002/10/11, 4:30,20.1,57.8,20.6,19.3
 2002/10/11, 4:45,20,57.8,20.5,19.2
 2002/10/11, 5:00,19.9,57.9,20.4,19
 2002/10/11, 5:15,19.8,57.9,20.3,19
 2002/10/11, 5:30,19.7,58.1,20.2,18.9
 2002/10/11, 5:45,19.6,58.1,20.1,18.9
 2002/10/11, 6:00,19.6,58.4,20,18.8
 2002/10/11, 6:15,19.7,59.3,20,18.7
 2002/10/11, 6:30,19.7,59.5,20,18.7
 2002/10/11, 6:45,19.6,59.4,20,18.6
 2002/10/11, 7:00,19.6,59.8,20.1,18.6
 2002/10/11, 7:15,19.6,59.9,20.1,18.5
 2002/10/11, 7:30,19.8,60.5,20.1,18.5
 2002/10/11, 7:45,20,59.3,20.2,18.4
 2002/10/11, 8:00,20.1,59.4,20.4,18.4
 2002/10/11, 8:15,20.5,58.7,20.6,18.3
 2002/10/11, 8:30,20.9,60.6,20.9,18.3
 2002/10/11, 8:45,21.1,59.5,21.1,18.3
 2002/10/11, 9:00,21.4,59,21.9,18.3
 2002/10/11, 9:15,21.2,60.6,22.6,18.2
 2002/10/11, 9:30,21.3,61.8,22.9,18.2
 2002/10/11, 9:45,21.5,64.4,23.3,18.2
 2002/10/11,10:00,21.6,65.2,23.5,18.2
 2002/10/11,10:15,21.9,64.9,23.9,18.2
 2002/10/11,10:30,22.1,64.2,24.1,18.2
 2002/10/11,10:45,22.3,64.3,24.4,18.2
 2002/10/11,11:00,22.5,63.2,24.5,18.2
 2002/10/11,11:15,22.8,63.5,24.7,18.2
 2002/10/11,11:30,23,62.5,24.9,18.2
 2002/10/11,11:45,23.2,62.8,25,18.2
 2002/10/11,12:00,23.3,61.9,25.2,18.2
 2002/10/11,12:15,23.5,62.3,25.3,18.2
 2002/10/11,12:30,24.3,59.6,25.6,18.2
 2002/10/11,12:45,24.7,56.9,25,18.2
 2002/10/11,13:00,24.6,56.8,25.2,18.2
 2002/10/11,13:15,25,55.4,25.6,18.2
 2002/10/11,13:30,25.2,53.7,25.7,18.3
 2002/10/11,13:45,25.3,53.8,25.7,18.3
 2002/10/11,14:00,25.1,55.7,26.4,18.3
 2002/10/11,14:15,25.2,56.4,26.4,18.4
 2002/10/11,14:30,25.4,56.5,26.3,18.4
 2002/10/11,14:45,25.4,56.7,26.3,18.4
 2002/10/11,15:00,25.5,56.9,26.1,18.5
 2002/10/11,15:15,25.4,57.1,25.7,18.5
 2002/10/11,15:30,25.3,57.4,25.3,18.6
 2002/10/11,15:45,25.3,57.8,25.3,18.6
 2002/10/11,16:00,25.2,58,25.2,18.7
 2002/10/11,16:15,25.2,58,25.1,20.5
 2002/10/11,16:30,25.1,58.3,25,20.5
 2002/10/11,16:45,25,59.2,25,20.5
 2002/10/11,17:00,24.9,59.5,24.8,20.6
 2002/10/11,17:15,24.8,60,24.7,20.5
 2002/10/11,17:30,24.7,60.6,24.7,20.6
 2002/10/11,17:45,24.6,60.9,24.7,20.6
 2002/10/11,18:00,24.7,62.2,24.6,20.6
 2002/10/11,18:15,24.9,63.4,24.6,20.7
 2002/10/11,18:30,25,63.1,24.6,20.7
 2002/10/11,18:45,24.9,62.9,24.5,20.7
 2002/10/11,19:00,24.9,62.7,24.5,20.7
 2002/10/11,19:15,24.9,62.1,24.5,20.7
 2002/10/11,19:30,24.8,62.1,24.6,20.8
 2002/10/11,19:45,24.8,61.7,24.6,20.8
 2002/10/11,20:00,24.8,62,24.6,20.9
 2002/10/11,20:15,24.5,61.7,24.4,20.9
 2002/10/11,20:30,24.4,61.8,24.3,21
 2002/10/11,20:45,24.3,61.7,24.2,21
 2002/10/11,21:00,24.1,61.8,24.1,21.1
 2002/10/11,21:15,24,61.7,24,21.1
 2002/10/11,21:30,23.9,61.9,23.9,21.1
 2002/10/11,21:45,23.8,61.7,23.8,21.1
 2002/10/11,22:00,23.7,61.9,23.7,21.1
 2002/10/11,22:15,23.6,62,23.6,21.1
 2002/10/11,22:30,23.8,62.4,23.6,21.2
 2002/10/11,22:45,23.8,62.2,23.5,21.1
 2002/10/11,23:00,23.5,62.3,23.5,21.1
 2002/10/11,23:15,23.4,62.2,23.4,21.2
 2002/10/11,23:30,23.3,62.2,23.3,21.1
 2002/10/11,23:45,23.3,62.2,23.3,20.3
 2002/10/12, 0:00,23.2,62.3,23.2,20.3
 2002/10/12, 0:15,23.1,62.3,23.2,20.4
 2002/10/12, 0:30,23,62.2,23.2,20.4
 2002/10/12, 0:45,23,62.1,23,20.4
 2002/10/12, 1:00,22.9,62.6,23,20.4
 2002/10/12, 1:15,22.9,62.6,22.9,20.4
 2002/10/12, 1:30,22.8,62.7,22.8,20.4
 2002/10/12, 1:45,22.7,62.6,22.9,20.4
 2002/10/12, 2:00,22.6,62.6,22.8,20.4
 2002/10/12, 2:15,22.5,62.6,22.8,20.4
 2002/10/12, 2:30,22.5,62.7,22.7,20.5
 2002/10/12, 2:45,22.4,62.6,22.6,20.4
 2002/10/12, 3:00,22.3,62.8,22.6,20.4
 2002/10/12, 3:15,22.2,62.7,22.6,20.4
 2002/10/12, 3:30,22.2,62.7,22.5,20.4
 2002/10/12, 3:45,22.1,62.7,22.4,20.4
 2002/10/12, 4:00,22,62.8,22.4,20.4
 2002/10/12, 4:15,21.9,62.7,22.3,20.3
 2002/10/12, 4:30,21.8,62.9,22.2,20.3
 2002/10/12, 4:45,21.8,62.8,22.2,20.3
 2002/10/12, 5:00,21.7,62.9,22.1,19.8
 2002/10/12, 5:15,21.6,62.9,22,19.8
 2002/10/12, 5:30,21.6,63,22,19.8
 2002/10/12, 5:45,21.5,62.9,21.9,19.8
 2002/10/12, 6:00,21.4,62.9,21.9,19.8
 2002/10/12, 6:15,21.3,63,21.8,19.8
 2002/10/12, 6:30,21.3,62.9,21.8,19.8
 2002/10/12, 6:45,21.2,62.8,21.6,19.8
 2002/10/12, 7:00,21.2,62.9,21.6,19.7
 2002/10/12, 7:15,21.2,62.7,21.6,19.7
 2002/10/12, 7:30,21.2,62.7,21.5,19.6
 2002/10/12, 7:45,21.3,62.6,21.5,19.6
 2002/10/12, 8:00,21.4,62.2,21.6,19.6
 2002/10/12, 8:15,21.6,61.7,21.8,20.8
 2002/10/12, 8:30,22,61.7,22,20.8
 2002/10/12, 8:45,22.8,62.7,22.4,20.8
 2002/10/12, 9:00,23,64.5,23,20.7
 2002/10/12, 9:15,23.1,63,23.3,20.7
 2002/10/12, 9:30,23.4,62.5,23.7,20.7
 2002/10/12, 9:45,24.1,58.9,23.9,20.8
 2002/10/12,10:00,24.1,58.4,24.1,20.7
 2002/10/12,10:15,24.3,58,24.5,20.8
 2002/10/12,10:30,24.6,55.7,24.8,20.8
 2002/10/12,10:45,24.9,54.8,25.1,20.8
 2002/10/12,11:00,25.2,52.4,25.3,20.8
 2002/10/12,11:15,25.8,52.4,25.6,20.8
 2002/10/12,11:30,25.9,52.1,25.8,20.8
 2002/10/12,11:45,25.8,50.4,26.1,20.8
 2002/10/12,12:00,25.6,53.7,26.3,20.9
 2002/10/12,12:15,25.5,55,26.6,20.9
 2002/10/12,12:30,25.6,55.5,26.8,20.9
 2002/10/12,12:45,25.7,55.6,27.1,20.9
 2002/10/12,13:00,25.8,55.9,27.2,20.9
 2002/10/12,13:15,25.9,55.8,27.2,20.9
 2002/10/12,13:30,26,55.5,27.3,21
 2002/10/12,13:45,26.1,55.8,27.4,21
 2002/10/12,14:00,26.2,55,27.3,21
 2002/10/12,14:15,26.3,56,27.4,21
 2002/10/12,14:30,26.3,55.4,27.2,21.1
 2002/10/12,14:45,26.4,55.9,27.2,21.1
 2002/10/12,15:00,26.5,55.5,27.2,21.2
 2002/10/12,15:15,26.5,56,27.1,21.2
 2002/10/12,15:30,26.6,55,26.9,21.2
 2002/10/12,15:45,26.6,53.9,26.9,21.3
 2002/10/12,16:00,26.5,52.6,26.9,21
 2002/10/12,16:15,26.5,49.3,26.7,21.6
 2002/10/12,16:30,26.3,49,26.5,21.6
 2002/10/12,16:45,26.2,48.5,26.3,21.7
 2002/10/12,17:00,26.2,49.2,26.1,21.7
 2002/10/12,17:15,26.1,49.6,26,21.7
 2002/10/12,17:30,26.1,49.5,26,21.8
 2002/10/12,17:45,26.1,50.3,26,21.8
 2002/10/12,18:00,25.9,51.6,26,21.9
 2002/10/12,18:15,26.5,53.9,25.4,21.9
 2002/10/12,18:30,26.3,54.1,25.1,22
 2002/10/12,18:45,26.2,52.4,25,22
 2002/10/12,19:00,26.2,52.1,24.9,22.1
 2002/10/12,19:15,26.1,51.8,24.8,22.1
 2002/10/12,19:30,26.1,51.3,24.6,22.1
 2002/10/12,19:45,26,50.7,24.5,22.2
 2002/10/12,20:00,25.8,50.8,24.3,22.2
 2002/10/12,20:15,25.5,50.2,24.3,22.2
 2002/10/12,20:30,24.9,51.1,24.9,22.2
 2002/10/12,20:45,24.7,51.5,24.8,22.3
 2002/10/12,21:00,24.6,50.8,24.7,22.3
 2002/10/12,21:15,24.6,52.7,24.7,22.3
 2002/10/12,21:30,24.4,52,24.5,22.3
 2002/10/12,21:45,24.3,52.9,24.3,22.3
 2002/10/12,22:00,24,53,24.2,22.3
 2002/10/12,22:15,23.8,53.7,23.9,22.3
 2002/10/12,22:30,23.4,54.5,23.7,22.3
 2002/10/12,22:45,23.4,54.7,23.6,22.4
 2002/10/12,23:00,23.3,55,23.4,22.3
 2002/10/12,23:15,23.2,55.4,23.2,22.4
 2002/10/12,23:30,23,55.8,23.1,22.4
 2002/10/12,23:45,22.7,56.7,23,22.4
 2002/10/13, 0:00,22.5,57.1,22.8,22.4
 2002/10/13, 0:15,22.5,57.1,22.8,22.4
 2002/10/13, 0:30,22.3,57.5,22.7,22.4
 2002/10/13, 0:45,22.3,57.5,22.6,22.4
 2002/10/13, 1:00,22.1,58.1,22.5,22.4
 2002/10/13, 1:15,22,58.6,22.3,22.3
 2002/10/13, 1:30,21.9,58.6,22.2,22.4
 2002/10/13, 1:45,21.8,58.9,22.1,22.3
 2002/10/13, 2:00,21.6,58.9,22,22.3
 2002/10/13, 2:15,21.5,59.3,21.9,22.3
 2002/10/13, 2:30,21.3,59.5,21.8,22.3
 2002/10/13, 2:45,21.2,59.9,21.6,22.3
 2002/10/13, 3:00,21.1,59.8,21.5,22.2
 2002/10/13, 3:15,21,60.2,21.3,22.2
 2002/10/13, 3:30,20.9,60.4,21.2,22.2
 2002/10/13, 3:45,20.8,60.7,21.2,22.1
 2002/10/13, 4:00,20.7,60.5,21.1,22.1
 2002/10/13, 4:15,20.7,60.7,21.1,22.1
 2002/10/13, 4:30,20.6,60.8,21,22
 2002/10/13, 4:45,20.6,61,21,22
 2002/10/13, 5:00,20.5,61.3,20.9,22
 2002/10/13, 5:15,20.5,61.6,20.9,22
 2002/10/13, 5:30,20.4,61.6,20.8,21.9
 2002/10/13, 5:45,20.3,61.9,20.8,21.9
 2002/10/13, 6:00,20.3,61.7,20.7,20.7
 2002/10/13, 6:15,20.2,61.8,20.7,20.7
 2002/10/13, 6:30,20.2,61.7,20.6,20.7
 2002/10/13, 6:45,20.1,61.8,20.6,20.7
 2002/10/13, 7:00,20.1,61.9,20.6,20.7
 2002/10/13, 7:15,20.1,61.9,20.6,20.7
 2002/10/13, 7:30,20.2,61.9,20.6,20.7
 2002/10/13, 7:45,20.8,62,20.7,21
 2002/10/13, 8:00,21,61.8,20.8,21
 2002/10/13, 8:15,20.9,61.6,20.9,21
 2002/10/13, 8:30,21,61.2,21.1,21
 2002/10/13, 8:45,21.1,60.7,21.2,20.9
 2002/10/13, 9:00,21.2,60.5,21.5,20.9
 2002/10/13, 9:15,21.4,60.3,21.9,20.9
 2002/10/13, 9:30,21.5,60.2,22.1,20.9
 2002/10/13, 9:45,22,60.2,22.4,20.7
 2002/10/13,10:00,22.8,59.9,22.9,20.7
 2002/10/13,10:15,23,60.6,23.3,20.7
 2002/10/13,10:30,23.5,59.3,23.7,20.7
 2002/10/13,10:45,24.2,59.8,23.8,20.7
 2002/10/13,11:00,24,63.1,24.3,20.7
 2002/10/13,11:15,24.1,63.8,24.8,20.7
 2002/10/13,11:30,24.3,62.8,25.1,20.7
 2002/10/13,11:45,24.5,63.1,25.4,20.7
 2002/10/13,12:00,24.6,63.7,25.7,20.7